Weather History for Paducah, KY

Change the Weather History Date:

Wednesday, August 15, 2012

  Actual Average Record
Temperature  
Mean Temperature 76 °F 78 °F  
Max Temperature 90 °F 89 °F 103 °F (1954)
Min Temperature 61 °F 67 °F 49 °F (2004)
Degree Days  
Heating Degree Days 0 0  
Month to date heating degree days 0 0  
Since 1 June heating degree days 7 4  
Since 1 July heating degree days 0 0  
Cooling Degree Days 11 13  
Month to date cooling degree days 228 196  
Year to date cooling degree days 1580 1119  
Since 1 June cooling degree days 1197 947  
Growing Degree Days 26 (Base 50)    
Moisture  
Dew Point 59 °F    
Average Humidity 63    
Maximum Humidity 93    
Minimum Humidity 32    
Precipitation  
Precipitation 0.00 in 0.08 in 1.17 in (1966)
Month to date precipitation 1.20 1.42  
Year to date precipitation 14.57 31.14  
Snow  
Snow 0.00 in 0.00 in - ()
Month to date snowfall 0.0 0.0  
Since 1 June snowfall 0.0 0.0  
Since 1 July snowfall 0.0 0.0  
Snow Depth 0.00 in    
Sea Level Pressure  
Sea Level Pressure 29.96 in    
Wind  
Wind Speed 4 mph (SE)    
Max Wind Speed 12 mph    
Max Gust Speed 16 mph    
Visibility 10 miles    
Events      
T = Trace of Precipitation, MM = Missing Value Source: NWS Daily Summary

Daily Weather History Graph

Daily Weather History Graph

Search for Another Location

Airport:

Trip Planner

Search our weather history database for the weather conditions in past years. The results will help you decide how hot, cold, wet, or windy it might be!

Date:

Astronomy

Aug. 15, 2012 Rise Set
Actual Time 6:12 AM CDT 7:46 PM CDT
Civil Twilight 5:44 AM CDT 8:13 PM CDT
Nautical Twilight 5:11 AM CDT 8:46 PM CDT
Astronomical Twilight 4:36 AM CDT 9:21 PM CDT
Moon 4:10 AM CDT (8/15) 6:18 PM CDT (8/15)
Length of Visible Light 14h 29m
Length of Day
13h 33m
Waning Crescent, 4% of the Moon is Illuminated
Aug 15
Waning Crescent
Aug 17
New
Aug 24
First Quarter
Aug 31
Full
Sep 8
Last Quarter

Hourly Weather History & Observations

Time (CDT) Temp. Heat Index Dew Point Humidity Pressure Visibility Wind Dir Wind Speed Gust Speed Precip Events Conditions
12:53 AM 68.0 °F - 62.1 °F 81% 29.95 in 10.0 mi Calm Calm - N/A   Overcast
1:53 AM 66.9 °F - 62.1 °F 84% 29.94 in 10.0 mi Calm Calm - N/A   Scattered Clouds
2:53 AM 66.0 °F - 62.1 °F 87% 29.94 in 10.0 mi Calm Calm - N/A   Clear
3:53 AM 63.0 °F - 61.0 °F 93% 29.96 in 10.0 mi Calm Calm - N/A   Scattered Clouds
4:53 AM 63.0 °F - 61.0 °F 93% 29.96 in 10.0 mi WSW 3.5 mph - N/A   Clear
5:53 AM 62.1 °F - 60.1 °F 93% 29.98 in 8.0 mi Calm Calm - N/A   Clear
6:53 AM 62.1 °F - 60.1 °F 93% 30.00 in 7.0 mi Calm Calm - N/A   Clear
7:53 AM 70.0 °F - 64.0 °F 81% 29.99 in 10.0 mi Calm Calm - N/A   Clear
8:53 AM 75.0 °F - 61.0 °F 62% 30.00 in 10.0 mi NNE 3.5 mph - N/A   Scattered Clouds
9:53 AM 80.1 °F 80.9 °F 60.1 °F 50% 30.00 in 10.0 mi ENE 5.8 mph - N/A   Scattered Clouds
10:53 AM 82.0 °F 82.0 °F 57.9 °F 44% 30.01 in 10.0 mi Variable 5.8 mph - N/A   Clear
11:53 AM 84.0 °F 83.3 °F 57.0 °F 40% 30.00 in 10.0 mi South 5.8 mph - N/A   Clear
12:53 PM 86.0 °F 84.7 °F 55.9 °F 36% 29.98 in 10.0 mi Variable 4.6 mph - N/A   Clear
1:53 PM 87.1 °F 85.7 °F 55.9 °F 35% 29.96 in 10.0 mi Variable 5.8 mph - N/A   Clear
2:53 PM 90.0 °F 88.1 °F 55.9 °F 31% 29.94 in 10.0 mi Variable 5.8 mph - N/A   Clear
3:53 PM 90.0 °F 87.9 °F 55.0 °F 30% 29.92 in 10.0 mi SSE 6.9 mph - N/A   Clear
4:53 PM 89.1 °F 87.3 °F 55.9 °F 32% 29.92 in 10.0 mi ESE 5.8 mph - N/A   Clear
5:53 PM 88.0 °F 86.5 °F 55.9 °F 34% 29.91 in 10.0 mi East 5.8 mph - N/A   Clear
6:53 PM 84.9 °F 83.9 °F 57.0 °F 38% 29.91 in 10.0 mi ESE 5.8 mph - N/A   Clear
7:53 PM 80.1 °F 80.6 °F 57.9 °F 47% 29.92 in 10.0 mi SE 3.5 mph - N/A   Clear
8:53 PM 75.2 °F - 60.8 °F 61% 29.95 in 10.0 mi SE 5.8 mph - N/A   Clear
9:53 PM 73.0 °F - 60.1 °F 64% 29.95 in 10.0 mi SSE 4.6 mph - N/A   Clear
10:53 PM 75.0 °F - 60.1 °F 60% 29.96 in 10.0 mi SSE 8.1 mph - N/A   Clear
11:53 PM 73.9 °F - 60.1 °F 62% 29.96 in 10.0 mi SSE 5.8 mph - N/A   Clear